This is the latest recevied weather packets stored in our database for station/object W1RCP. If no packets are shown the sender has not sent any weather packets the latest 10 day(s).
| Time | Temp. | Humidity | Pressure | Rain* | Wind** | Luminosity | Snow |
|---|---|---|---|---|---|---|---|
| 1778163728 | 21.67° C | 95% | 1027.1 hPa | 4.32 mm | - | 25 W/m² | - |
| 1778163424 | 21.67° C | 94% | 1027.3 hPa | 4.83 mm | - | 17 W/m² | - |
| 1778163121 | 21.67° C | 94% | 1027.1 hPa | 1.78 mm | - | 19 W/m² | - |
| 1778162817 | 21.67° C | 94% | 1027.2 hPa | 3.05 mm | - | 15 W/m² | - |
| 1778162515 | 21.67° C | 93% | 1027.4 hPa | 4.32 mm | - | 16 W/m² | - |
| 1778162212 | 21.67° C | 93% | 1027.4 hPa | 1.27 mm | - | 18 W/m² | - |
| 1778161909 | 21.67° C | 93% | 1027.5 hPa | 1.78 mm | - | 19 W/m² | - |
| 1778161605 | 21.67° C | 92% | 1027.9 hPa | 3.05 mm | - | 13 W/m² | - |
| 1778161302 | 22.22° C | 91% | 1027.8 hPa | 3.05 mm | - | 11 W/m² | - |
| 1778160997 | 22.22° C | 90% | 1027.9 hPa | 0 mm | - | 14 W/m² | - |
| 1778160695 | 22.22° C | 89% | 1027.5 hPa | 0 mm | - | 8 W/m² | - |
| 1778160392 | 22.22° C | 89% | 1027 hPa | 0 mm | - | 8 W/m² | - |
| 1778160088 | 22.22° C | 89% | 1026.4 hPa | 0 mm | - | 15 W/m² | - |
| 1778159785 | 22.22° C | 89% | 1026.3 hPa | 0 mm | - | 17 W/m² | - |
| 1778159482 | 22.22° C | 89% | 1026 hPa | 0 mm | - | 12 W/m² | - |
| 1778159179 | 22.22° C | 89% | 1025.8 hPa | 0 mm | - | 14 W/m² | - |
| 1778158877 | 22.22° C | 89% | 1025.4 hPa | 0 mm | - | 27 W/m² | - |
| 1778158576 | 22.22° C | 89% | 1025 hPa | 0 mm | - | 26 W/m² | - |
| 1778158273 | 22.22° C | 89% | 1025.1 hPa | 0 mm | - | 26 W/m² | - |
| 1778157969 | 22.22° C | 89% | 1025.3 hPa | 0 mm | - | 30 W/m² | - |
| 1778157667 | 22.22° C | 88% | 1025.4 hPa | 0 mm | - | 32 W/m² | - |
| 1778157365 | 22.22° C | 88% | 1025.3 hPa | 0 mm | - | 36 W/m² | - |
| 1778157061 | 22.22° C | 89% | 1025.4 hPa | 0 mm | - | 42 W/m² | - |
| 1778156757 | 22.22° C | 89% | 1025.3 hPa | 0 mm | - | 36 W/m² | - |
| 1778156453 | 22.22° C | 89% | 1025.4 hPa | 0 mm | - | 48 W/m² | - |
* Rain latest hour (hover to see other rain measurements)
** Current wind speed in m/s (hover to see current wind gust speed)